Location: Borojevi?i
(45.0486°N, 16.2297°E)
Time: 10:45:11
(UTC+00:00)

Cosmos 2360 Rocket - Pass Details

Date: 08 August 2020
Orbit: 833 x 845 km, 71.0° (Epoch: 20 September)

Event Time Altitude Azimuth Distance (km) Brightness Sun altitude
Rises 22:12:55 0° 333° (NNW) 3,414 6.5 -28.2°
Reaches altitude 10° 22:15:23 10° 332° (NNW) 2,475 5.5 -28.3°
Enters shadow 22:20:46 76° 284° (WNW) 874 2.2 -28.5°
